TimeEDT,TemperatureF,Dew PointF,Humidity,Sea Level PressureIn,VisibilityMPH,Wind Direction,Wind SpeedMPH,Gust SpeedMPH,PrecipitationIn,Events,Conditions,WindDirDegrees,DateUTC
12:53 AM,82.9,75.9,79,29.94,10.0,West,8.1,-,N/A,,Clear,260,2013-06-15 04:53:00
1:53 AM,82.9,75.0,77,29.93,10.0,West,9.2,-,N/A,,Clear,270,2013-06-15 05:53:00
2:53 AM,82.9,75.0,77,29.93,10.0,West,6.9,-,N/A,,Clear,280,2013-06-15 06:53:00
3:53 AM,82.9,75.0,77,29.92,10.0,West,8.1,-,N/A,,Clear,280,2013-06-15 07:53:00
4:53 AM,82.0,75.0,79,29.93,10.0,WNW,6.9,-,N/A,,Clear,290,2013-06-15 08:53:00
5:53 AM,82.0,75.0,79,29.94,10.0,West,4.6,-,N/A,,Clear,280,2013-06-15 09:53:00
6:53 AM,82.0,75.9,82,29.97,10.0,WSW,3.5,-,N/A,,Clear,240,2013-06-15 10:53:00
7:53 AM,82.0,75.9,82,29.97,10.0,West,6.9,-,N/A,,Clear,260,2013-06-15 11:53:00
8:53 AM,82.9,75.9,79,30.00,10.0,West,4.6,-,N/A,,Scattered Clouds,270,2013-06-15 12:53:00
9:28 AM,82.9,75.9,79,30.00,10.0,WSW,3.5,-,N/A,,Mostly Cloudy,240,2013-06-15 13:28:00
9:53 AM,82.9,75.9,79,30.01,10.0,NW,3.5,-,N/A,,Overcast,320,2013-06-15 13:53:00
10:38 AM,84.0,75.9,76,30.01,10.0,West,8.1,-,N/A,,Mostly Cloudy,280,2013-06-15 14:38:00
10:53 AM,84.0,75.9,76,30.02,10.0,West,9.2,-,N/A,,Scattered Clouds,280,2013-06-15 14:53:00
11:53 AM,84.9,73.9,69,30.02,10.0,WNW,8.1,-,N/A,,Clear,290,2013-06-15 15:53:00
12:35 PM,86.0,75.0,70,30.02,10.0,NNW,4.6,-,N/A,,Mostly Cloudy,330,2013-06-15 16:35:00
12:53 PM,84.9,75.9,74,30.02,10.0,WNW,5.8,-,N/A,,Overcast,300,2013-06-15 16:53:00
1:02 PM,84.9,75.0,72,30.02,10.0,NW,5.8,-,N/A,,Overcast,310,2013-06-15 17:02:00
1:49 PM,86.0,75.2,70,30.01,10.0,WNW,4.6,-,N/A,,Overcast,300,2013-06-15 17:49:00
1:53 PM,86.0,75.0,70,30.01,10.0,North,-9999.0,-,N/A,,Overcast,0,2013-06-15 17:53:00
2:09 PM,86.0,75.0,70,30.01,10.0,SW,5.8,-,N/A,,Mostly Cloudy,220,2013-06-15 18:09:00
2:53 PM,88.0,75.9,67,30.00,10.0,North,-9999.0,-,N/A,,Mostly Cloudy,0,2013-06-15 18:53:00
3:44 PM,87.1,75.9,69,29.99,10.0,West,5.8,-,N/A,,Overcast,280,2013-06-15 19:44:00
3:53 PM,87.1,75.9,69,29.99,10.0,West,6.9,-,N/A,,Mostly Cloudy,280,2013-06-15 19:53:00
4:53 PM,87.1,75.0,67,29.97,10.0,West,8.1,-,N/A,,Partly Cloudy,280,2013-06-15 20:53:00
5:53 PM,88.0,75.9,67,29.97,10.0,NNW,8.1,-,N/A,,Partly Cloudy,340,2013-06-15 21:53:00
6:53 PM,87.1,75.0,67,30.00,10.0,North,8.1,-,N/A,,Scattered Clouds,350,2013-06-15 22:53:00
7:53 PM,82.9,75.9,79,30.04,10.0,East,17.3,-,N/A,,Overcast,100,2013-06-15 23:53:00
8:02 PM,82.9,73.9,74,30.03,10.0,ESE,16.1,-,N/A,,Mostly Cloudy,110,2013-06-16 00:02:00
8:37 PM,81.0,75.0,82,30.02,10.0,SW,5.8,-,N/A,,Mostly Cloudy,230,2013-06-16 00:37:00
8:53 PM,81.0,75.0,82,30.01,10.0,Calm,Calm,-,N/A,,Overcast,0,2013-06-16 00:53:00
9:53 PM,82.0,73.0,74,30.03,10.0,ENE,9.2,-,N/A,,Overcast,60,2013-06-16 01:53:00
10:53 PM,82.0,75.9,82,30.05,10.0,ESE,11.5,-,N/A,,Overcast,110,2013-06-16 02:53:00
11:53 PM,82.0,75.9,82,30.05,10.0,ESE,9.2,-,N/A,,Overcast,110,2013-06-16 03:53:00